Location: Arran
(51.9410°N, 101.7372°W)
Time: 07:33:06
(UTC+00:00)

SWISSCUBE - Pass Details

Date: 16 May 2025
Orbit: 685 x 693 km, 98.4° (Epoch: 20 June)

Event Time Altitude Azimuth Distance (km) Brightness Sun altitude
Rises 06:34:12 0° 10° (N) 3,076 ? -18.9°
Reaches altitude 10° 06:36:32 10° 4° (N) 2,156 ? -18.9°
Maximum altitude 06:40:59 43° 294° (WNW) 975 ? -18.9°
Enters shadow 06:43:40 22° 234° (SW) 1,515 ? -18.9°
